X  Close Light rain throughout the day.
Conditions Temperature Feels Precipitation Wind Wind Direction UV index Pressure
19:00 rain Possible Light Rain and Windy 11° 0.69 mm 53% 37-67 km/h SW SW - 1007,9
20:00 rain Possible Light Rain and Windy 11° 0.49 mm 56% 36-66 km/h SW SW - 1007,4
21:00 rain Possible Drizzle and Windy 11° 0.2 mm 44% 36-64 km/h SW SW - 1006,8
22:00 cloudy Overcast 11° 0.07 mm 25% 35-62 km/h SW SW - 1006,4
23:00 cloudy Overcast 11° 0.07 mm 18% 34-60 km/h WSW WSW - 1006,1
00:00 rain Possible Drizzle 11° 0.11 mm 30% 32-57 km/h WSW WSW - 1005,9
01:00 rain Possible Drizzle 11° 0.16 mm 28% 29-54 km/h WSW WSW - 1005,7
02:00 rain Possible Drizzle 10° 0.17 mm 33% 28-51 km/h West West - 1005,4
03:00 rain Possible Drizzle 9° 5° 0.18 mm 34% 26-47 km/h WSW WSW - 1005,1
04:00 rain Possible Drizzle 8° 4° 0.15 mm 33% 25-45 km/h West West - 1004,9
05:00 rain Possible Drizzle 7° 3° 0.08 mm 30% 25-44 km/h West West - 1004,8
06:00 cloudy Overcast 6° 2° 0.02 mm 20% 25-44 km/h West West - 1004,8
07:00 cloudy Overcast 6° 2° 0.01 mm 14% 26-44 km/h West West - 1004,8
08:00 cloudy Overcast 6° 1° 0.01 mm 15% 25-45 km/h West West - 1004,6
09:00 partly-cloudy-day Mostly Cloudy 6° 1° 0.04 mm 22% 23-45 km/h WSW WSW - 1004,4
10:00 partly-cloudy-day Mostly Cloudy 6° 2° 0.08 mm 24% 23-45 km/h WSW WSW uv-1 1004,1
11:00 partly-cloudy-day Mostly Cloudy 7° 3° 0.05 mm 20% 24-45 km/h WSW WSW uv-1 1003,7
12:00 partly-cloudy-day Partly Cloudy 8° 4° 0.02 mm 18% 26-45 km/h WSW WSW uv-1 1003,1
13:00 partly-cloudy-day Partly Cloudy 8° 5° 0.04 mm 24% 28-45 km/h WSW WSW uv-2 1002,6
14:00 rain Possible Drizzle 8° 5° 0.13 mm 40% 29-45 km/h WSW WSW uv-1 1001,8
15:00 rain Possible Drizzle 8° 4° 0.35 mm 52% 31-46 km/h WSW WSW uv-1 1000,8
16:00 rain Possible Light Rain 7° 3° 0.53 mm 52% 32-45 km/h WSW WSW uv-1 999,9
17:00 rain Possible Drizzle 7° 2° 0.37 mm 51% 30-43 km/h WSW WSW - 999,5
18:00 rain Possible Drizzle 6° 2° 0.14 mm 45% 26-40 km/h WSW WSW - 999,1
19:00 rain Possible Drizzle 5° 1° 0.1 mm 44% 23-39 km/h WSW WSW - 998,6
20:00 rain Possible Light Rain 5° 1° 0.41 mm 61% 22-42 km/h WSW WSW - 997,9
21:00 rain Light Rain 4° 0° 1.28 mm 75% 21-46 km/h WSW WSW - 996,8
22:00 rain Light Rain 4° -0° 1.95 mm 78% 21-49 km/h SW SW - 996,0
23:00 rain Light Rain 4° -1° 1.47 mm 75% 21-52 km/h SSE SSE - 995,7
00:00 rain Light Rain 3° -1° 0.66 mm 66% 23-54 km/h WNW WNW - 995,6
01:00 rain Possible Drizzle 3° -2° 0.24 mm 56% 24-56 km/h West West - 995,6
02:00 rain Possible Drizzle 3° -2° 0.09 mm 46% 26-55 km/h NW NW - 995,5
03:00 rain Possible Drizzle 3° -2° 0.11 mm 40% 27-52 km/h SSW SSW - 995,5
04:00 partly-cloudy-night Partly Cloudy 3° -2° 0.2 mm 22% 28-50 km/h West West - 995,8
05:00 rain Possible Drizzle 3° -3° 0.16 mm 41% 28-50 km/h West West - 996,1
06:00 rain Possible Drizzle 2° -3° 0.12 mm 50% 27-50 km/h West West - 996,5
07:00 rain Possible Drizzle 2° -3° 0.16 mm 61% 26-50 km/h West West - 997,2
08:00 rain Possible Drizzle 2° -3° 0.25 mm 64% 26-48 km/h SSE SSE - 998,1
09:00 rain Drizzle 2° -3° 0.4 mm 66% 26-47 km/h North North - 999,1
10:00 rain Possible Light Rain 2° -3° 0.5 mm 64% 27-45 km/h West West - 1000,1
11:00 rain Possible Light Rain 3° -2° 0.42 mm 55% 27-43 km/h West West uv-1 1001,1
12:00 rain Possible Drizzle 4° -1° 0.28 mm 40% 28-41 km/h West West uv-1 1002,2
13:00 rain Possible Drizzle 5° -0° 0.19 mm 34% 29-40 km/h West West uv-1 1003,0
14:00 rain Possible Drizzle 6° 1° 0.16 mm 36% 29-40 km/h West West uv-1 1003,6
15:00 rain Possible Drizzle 6° 1° 0.17 mm 38% 29-42 km/h West West uv-1 1004,1
16:00 rain Possible Drizzle 6° 1° 0.16 mm 38% 28-42 km/h West West - 1004,6
17:00 rain Possible Drizzle 5° 1° 0.12 mm 34% 25-42 km/h NW NW - 1005,3
18:00 rain Possible Drizzle 5° 0° 0.1 mm 34% 22-41 km/h SW SW - 1005,9
19:00 rain Possible Drizzle 4° -0° 0.1 mm 36% 20-41 km/h West West - 1006,6